Welcome to the New NWS' Forecast!
Most changes are behind the scenes, but click here for differences you might notice.
Latest weather observations around

Los Angeles, Los Angeles International Airport (KLAX)

Using English Units (Switch to International System of Units)
Date/ Time (PDT) Wind (mph) Vis. (mi) Weather Sky Cond. Temp (°F) Rel. Humidity Wind Chill (°F) Heat Index (°F) Pressure Precip. (in)
Air Dwpt 6 hour Altimeter (inHg) Sea level (inHg) 1 hr 3 hr 6 hr
Max Min
Sep 23 06:53 Calm 10 Mostly Clear FEW020 59 53     81%     29.84 29.83      
Sep 23 05:53 E 5 10 Mostly Clear FEW018 57 53     87%     29.82 29.82      
Sep 23 04:53 E 6 10 Mostly Clear FEW020 57 54     89%     29.81 29.81      
Sep 23 03:53 ENE 3 10 Mostly Clear FEW020 59 55     87%     29.82 29.81      
Sep 23 02:53 WSW 3 10 Mostly Clear FEW020 61 55     81%     29.81 29.8      
Sep 23 01:53 WSW 5 10 Clear CLR 61 55     81%     29.81 29.8      
Sep 23 00:53 WSW 7 10 Clear CLR 62 56     80%     29.81 29.8      
Sep 22 23:53 WNW 7 10 Clear CLR 63 55     75%     29.81 29.8      
Sep 22 22:53 W 10 10 Mostly Clear FEW040 63 55     75%     29.81 29.81      
Sep 22 21:53 W 10 10 Mostly Clear FEW040 64 54     70%     29.81 29.8      
Sep 22 20:53 W 14 10 Mostly Clear FEW040 63 57     81%     29.82 29.81      
Sep 22 19:53 W 20 10 Mostly Clear and Windy FEW042 64 54     70%     29.81 29.81      
Sep 22 18:53 W 18 10 Mostly Clear FEW040 66 52     61%     29.8 29.8      
Sep 22 17:53 W 16 10 Partly Cloudy SCT042 66 54     65%     29.81 29.8      
Sep 22 16:53 W 16 10 Partly Cloudy SCT044 67 58     73%     29.82 29.81      
Sep 22 15:53 W 16 10 Mostly Clear FEW045 70 59     68%     29.82 29.82      
Sep 22 14:53 W 15 10 Partly Cloudy SCT048 71 59     66%   71 29.83 29.83      
Sep 22 13:53 SW 16 10 Partly Cloudy SCT050 71 56     59%   71 29.85 29.84      
Sep 22 12:53 WSW 14 10 Partly Cloudy FEW040 SCT048 71 55     57%   71 29.87 29.86      
Sep 22 11:53 WSW 11 10 Partly Cloudy SCT039 SCT046 71 54     55%   70 29.87 29.87      
Sep 22 10:53 Calm 10 Partly Cloudy SCT038 69 51     53%     29.89 29.88      
Sep 22 09:53 ESE 6 10 Partly Cloudy SCT033 68 53     59%     29.9 29.89      
Sep 22 08:53 E 7 9 Partly Cloudy FEW025 SCT065 66 52     61%     29.88 29.88      
Sep 22 07:53 NE 5 9 Partly Cloudy SCT025 SCT060 62 53     72%     29.87 29.87      
Sep 22 06:53 ENE 6 9 Partly Cloudy SCT023 SCT040 60 53     78%     29.86 29.86      
Sep 22 06:20 5 9 Partly Cloudy SCT023 SCT040 60 53     78%     29.86        
Sep 22 05:53 NE 6 10 Mostly Cloudy FEW020 BKN026 BKN060 60 53     78%     29.85 29.84      
Sep 22 05:44 ENE 5 10 Clear   60 54     80%     29.85        
Sep 22 04:53 5 10 Clear   60 53     78%     29.84 29.83      
Sep 22 03:53 ENE 8 10 Partly Cloudy SCT065 60 52     75%     29.83 29.82      
Sep 22 02:53 E 7 10 Clear CLR 60 53     78%     29.84 29.83      
Sep 22 01:53 E 8 10 Clear CLR 61 54     78%     29.84 29.83      
Sep 22 00:53 ENE 9 10 Clear CLR 63 55     75%     29.83 29.82      
Sep 21 23:53 ENE 8 10 Mostly Clear FEW040 63 54     72%     29.83 29.82      
Sep 21 22:53 E 8 10 Mostly Clear FEW040 63 55     75%     29.83 29.82      
Sep 21 21:53 ENE 8 10 Mostly Clear FEW040 64 55     73%     29.82 29.82      
Sep 21 20:53 E 7 10 Clear CLR 64 55     73%     29.82 29.81      
Sep 21 19:53 3 10 Clear CLR 66 55     68%     29.81 29.8      
Sep 21 18:53 WSW 8 10 Mostly Clear FEW040 66 57     73%     29.81 29.8      
Sep 21 17:53 WSW 15 10 Mostly Clear FEW022 FEW070 67 56     68%     29.81 29.81      
Sep 21 16:53 WSW 15 10 Mostly Clear FEW022 FEW070 68 57     68%     29.81 29.81      
Sep 21 15:53 W 15 10 Mostly Clear FEW025 FEW090 70 55     59%     29.82 29.81      
Sep 21 14:53 W 18 10 Mostly Clear FEW025 FEW090 70 55     59%     29.83 29.82      
Sep 21 13:53 WSW 15 10 Partly Cloudy FEW025 FEW045 SCT090 70 55     59%     29.83 29.83      
Sep 21 12:53 W 16 10 Mostly Cloudy SCT025 SCT043 BKN090 71 57     61%   71 29.85 29.84      
Sep 21 11:53 W 20 9 Mostly Cloudy and Windy SCT022 SCT040 BKN090 69 58     68%     29.86 29.85      
Sep 21 11:07 W 17 9 Mostly Cloudy FEW018 SCT021 BKN039 69 60     73%     29.87        
Sep 21 10:53 W 20 8 Mostly Cloudy and Windy BKN017 BKN023 BKN037 68 60     76%     29.87 29.87     0
Sep 21 09:53 W 13 7 Mostly Cloudy SCT009 BKN022 BKN030 67 63     87%     29.87 29.87      
Sep 21 08:53 W 10 7 Mostly Cloudy SCT009 BKN021 BKN030 67 63     87%     29.86 29.86 0    
Sep 21 08:47 WSW 11 7 Mostly Cloudy SCT009 BKN021 BKN030 66 63     90%     29.86   0    
Sep 21 07:53 WSW 10 7 Mostly Cloudy SCT008 BKN015 BKN024 66 63     90%     29.86 29.85 0 0  
Sep 21 07:19 WSW 7 8 Light Rain SCT008 BKN013 BKN027 66 63     90%     29.85   0    
Sep 21 06:53 S 7 8 Cloudy BKN015 BKN027 OVC050 67 62     84%     29.84 29.83      
Sep 21 05:53 S 7 10 Cloudy SCT018 OVC025 67 62     84%     29.84 29.83      
Sep 21 04:53 SW 7 10 Cloudy SCT014 BKN026 OVC032 67 62     84%     29.83 29.82      
Sep 21 03:53 WSW 5 10 Cloudy OVC014 67 63     87%     29.83 29.83      
Sep 21 02:53 WSW 7 10 Cloudy BKN014 OVC019 67 63     87%     29.84 29.83      
Sep 21 02:51 W 6 10 Cloudy BKN014 OVC019 66 63     88%     29.84        
Sep 21 01:59 SSW 7 10 Cloudy OVC026 68 63     84%     29.85        
Sep 21 01:53 S 7 10 Cloudy SCT026 OVC043 67 63     87%     29.85 29.84      
Sep 21 00:53 SSW 6 10 Cloudy OVC042 67 64     90%     29.85 29.84      
Sep 20 23:53 SW 7 10 Mostly Cloudy BKN044 67 62     84%     29.86 29.85      
Sep 20 22:53 W 8 10 Partly Cloudy SCT045 67 62     84%     29.86 29.85      
Sep 20 21:53 W 10 10 Mostly Cloudy BKN045 68 63     84%     29.86 29.85      
Sep 20 20:53 W 13 10 Cloudy OVC042 68 64     87%     29.86 29.85      
Sep 20 19:53 W 11 10 Mostly Clear FEW015 69 63     81%     29.85 29.84      
Sep 20 18:53 W 10 10 Mostly Clear FEW014 FEW036 69 64     84%     29.84 29.83      
Sep 20 17:53 W 10 10 Mostly Clear FEW015 FEW036 71 62     73%   71 29.85 29.84      
Sep 20 16:53 SW 13 10 Mostly Clear FEW015 FEW036 72 62     71%   72 29.86 29.85      
Sep 20 15:53 WSW 15 10 Mostly Clear FEW036 73 62     68%   73 29.86 29.86      
Sep 20 14:53 WSW 14 10 Mostly Clear FEW040 75 62     64%   75 29.87 29.86      
Sep 20 13:53 WSW 15 10 Partly Cloudy SCT034 SCT042 75 62     64%   75 29.88 29.88      
Sep 20 12:53 SW 13 9 Partly Cloudy SCT033 SCT041 75 62     64%   75 29.89 29.89      
Sep 20 11:53 WSW 9 8 Mostly Cloudy FEW025 BKN039 75 61     62%   75 29.9 29.9      
Sep 20 10:53 SE 6 8 Mostly Cloudy FEW026 BKN036 76 60     58%   76 29.91 29.91      
Sep 20 09:53 ESE 8 8 Mostly Cloudy FEW025 BKN037 73 60     64%   73 29.91 29.91      
Sep 20 08:53 ENE 3 8 Mostly Cloudy FEW010 SCT034 BKN065 70 61     73%     29.9 29.9      
Sep 20 07:53 E 3 8 Partly Cloudy FEW031 SCT050 67 61     81%     29.89 29.88      
Jun 12 02:53 E 6 10 Mostly Clear FEW090 FEW220 57 51     81%     29.97 29.96      
Jun 10 23:53 SW 6 10 Clear   63 57     81%     29.87 29.86      
Jun 10 06:53 WSW 6 10 Cloudy BKN020 OVC026 62 58     86%     29.88 29.87      
Jun 10 05:53 WSW 3 10 Mostly Cloudy BKN023 62 57     84%     29.87 29.86      
Jun 09 15:53 WSW 14 10 Partly Cloudy FEW013 SCT100 69 60     73%     29.91 29.9      
Jun 09 12:53 WSW 14 9 Mostly Clear FEW017 FEW120 70 55     59%     29.96 29.95      
Jun 09 00:53 SSW 3 10 Mostly Clear FEW011 61 56     83%     29.94 29.93      
Jun 08 16:53 WSW 21 10 Clear and Windy   67 57     71%     29.95 29.95      
Jun 08 05:53 W 7 4 Clear   61 60     97%     29.99 29.98 0    
Jun 07 15:53 WSW 13 10 Mostly Clear FEW022 68 59     73%     29.94 29.93      
Jun 07 12:53 7 7 Cloudy OVC016 65 59     81%     29.98 29.98      
Jun 07 10:53 WSW 9 6 Haze SCT012 OVC014 63 59     87%     29.97 29.97     0
Jun 07 09:53 WSW 7 5 Fog/Mist BKN013 OVC018 63 59     87%     29.96 29.96